• In Netherlands
  • List of Countries
  • For 7 days
  • Water Temperature
  • Satellite Maps
  • Weather Map
  • Weather Widgets
  • user-avatar
    Login

    Hourly Weather Encamp

    Today, 25 May, Friday

    Time Temperature Precipitation Wind Pressure Humidity
    00:00 +8°C° 0 mm 1 mps 624 mmHg 77%
    01:00 +8°C° 0 mm 1 mps 624 mmHg 76%
    02:00 +8°C° 0 mm 1 mps 624 mmHg 74%
    03:00 +8°C° 0 mm 1 mps 624 mmHg 73%
    04:00 +9°C° 0 mm 1 mps 624 mmHg 71%
    05:00 +8°C° 0 mm 2 mps 624 mmHg 69%
    06:00 +9°C° 0 mm 2 mps 625 mmHg 66%
    07:00 +12°C° 0.1 mm 2 mps 625 mmHg 64%
    08:00 +13°C° 0.1 mm 2 mps 626 mmHg 61%
    09:00 +15°C° 0.1 mm 2 mps 626 mmHg 58%
    10:00 +16°C° 0.1 mm 3 mps 626 mmHg 53%
    11:00 +18°C° 0.1 mm 4 mps 627 mmHg 48%
    12:00 +19°C° 0.1 mm 4 mps 627 mmHg 43%
    13:00 +19°C° 0.1 mm 4 mps 627 mmHg 43%
    14:00 +19°C° 0.1 mm 5 mps 627 mmHg 43%
    15:00 +19°C° 0.1 mm 5 mps 626 mmHg 42%
    16:00 +18°C° 0 mm 4 mps 626 mmHg 47%
    17:00 +15°C° 0 mm 4 mps 625 mmHg 52%
    18:00 +14°C° 0 mm 3 mps 625 mmHg 57%
    19:00 +12°C° 0 mm 3 mps 624 mmHg 61%
    20:00 +10°C° 0 mm 2 mps 623 mmHg 65%
    21:00 +8°C° 0 mm 2 mps 623 mmHg 68%
    22:00 +8°C° 0 mm 2 mps 623 mmHg 69%
    23:00 +8°C° 0 mm 2 mps 623 mmHg 69%

    Tomorrow, 26 May, Saturday

    Time Temperature Precipitation Wind Pressure Humidity
    00:00 +7°C° 0 mm 2 mps 623 mmHg 69%
    01:00 +7°C° 0 mm 2 mps 623 mmHg 73%
    02:00 +7°C° 0 mm 2 mps 622 mmHg 77%
    03:00 +7°C° 0 mm 2 mps 622 mmHg 81%
    04:00 +8°C° 0 mm 2 mps 623 mmHg 81%
    05:00 +9°C° 0 mm 2 mps 623 mmHg 81%
    06:00 +10°C° 0 mm 2 mps 624 mmHg 80%
    07:00 +12°C° 0 mm 3 mps 625 mmHg 72%
    08:00 +14°C° 0 mm 3 mps 625 mmHg 64%
    09:00 +15°C° 0 mm 4 mps 626 mmHg 56%
    10:00 +18°C° 0 mm 4 mps 627 mmHg 52%
    11:00 +19°C° 0 mm 4 mps 627 mmHg 47%
    12:00 +20°C° 0 mm 4 mps 627 mmHg 43%
    13:00 +20°C° 0 mm 4 mps 627 mmHg 44%
    14:00 +19°C° 0 mm 4 mps 627 mmHg 46%
    15:00 +19°C° 0 mm 4 mps 627 mmHg 47%
    16:00 +18°C° 0.3 mm 4 mps 626 mmHg 54%
    17:00 +17°C° 0.3 mm 3 mps 626 mmHg 60%
    18:00 +14°C° 0.3 mm 3 mps 625 mmHg 67%
    19:00 +14°C° 0.3 mm 2 mps 625 mmHg 73%
    20:00 +12°C° 0.3 mm 2 mps 624 mmHg 78%
    21:00 +10°C° 0.3 mm 1 mps 624 mmHg 84%
    22:00 +10°C° 0 mm 1 mps 624 mmHg 84%
    23:00 +10°C° 0 mm 1 mps 624 mmHg 83%

    Day after tomorrow, 27 May, Sunday

    Time Temperature Precipitation Wind Pressure Humidity
    00:00 +9°C° 0 mm 1 mps 624 mmHg 82%
    01:00 +9°C° 0.1 mm 1 mps 623 mmHg 81%
    02:00 +9°C° 0.1 mm 1 mps 623 mmHg 81%
    03:00 +8°C° 0.1 mm 1 mps 623 mmHg 80%
    04:00 +9°C° 0 mm 1 mps 623 mmHg 77%
    05:00 +10°C° 0 mm 1 mps 624 mmHg 75%
    06:00 +11°C° 0 mm 1 mps 624 mmHg 72%
    07:00 +13°C° 0 mm 1 mps 625 mmHg 65%
    08:00 +15°C° 0 mm 1 mps 626 mmHg 59%
    09:00 +18°C° 0 mm 1 mps 627 mmHg 52%
    10:00 +18°C° 0.4 mm 2 mps 627 mmHg 53%
    11:00 +18°C° 0.4 mm 2 mps 627 mmHg 53%
    12:00 +19°C° 0.4 mm 3 mps 627 mmHg 53%
    13:00 +18°C° 0.6 mm 3 mps 627 mmHg 56%
    14:00 +18°C° 0.6 mm 3 mps 626 mmHg 58%
    15:00 +18°C° 0.6 mm 3 mps 626 mmHg 60%
    16:00 +17°C° 1 mm 2 mps 626 mmHg 67%
    17:00 +15°C° 1 mm 2 mps 625 mmHg 74%
    18:00 +14°C° 1 mm 1 mps 625 mmHg 81%
    19:00 +13°C° 0.9 mm 1 mps 625 mmHg 83%
    20:00 +12°C° 0.9 mm 1 mps 624 mmHg 85%
    21:00 +10°C° 0.9 mm 1 mps 624 mmHg 88%
    22:00 +10°C° 0.3 mm 1 mps 624 mmHg 87%
    23:00 +9°C° 0.3 mm 1 mps 624 mmHg 86%

    28 May, Monday

    Time Temperature Precipitation Wind Pressure Humidity
    00:00 +9°C° 0.3 mm 1 mps 624 mmHg 86%
    01:00 +9°C° 0.1 mm 1 mps 623 mmHg 86%
    02:00 +8°C° 0.1 mm 1 mps 623 mmHg 86%
    03:00 +8°C° 0.1 mm 1 mps 623 mmHg 87%
    04:00 +9°C° 0 mm 1 mps 623 mmHg 84%
    05:00 +10°C° 0 mm 1 mps 623 mmHg 82%
    06:00 +10°C° 0 mm 1 mps 624 mmHg 79%
    07:00 +12°C° 0.1 mm 1 mps 624 mmHg 74%
    08:00 +14°C° 0.1 mm 2 mps 625 mmHg 69%
    09:00 +14°C° 0.1 mm 3 mps 626 mmHg 63%
    10:00 +16°C° 0.6 mm 3 mps 626 mmHg 63%
    11:00 +16°C° 0.6 mm 3 mps 626 mmHg 62%
    12:00 +17°C° 0.6 mm 3 mps 626 mmHg 62%
    13:00 +17°C° 1.1 mm 3 mps 626 mmHg 63%
    14:00 +16°C° 1.1 mm 3 mps 625 mmHg 65%
    15:00 +16°C° 1.1 mm 3 mps 625 mmHg 67%
    16:00 +15°C° 0.8 mm 2 mps 625 mmHg 71%
    17:00 +14°C° 0.8 mm 2 mps 625 mmHg 75%
    18:00 +14°C° 0.8 mm 2 mps 624 mmHg 79%
    19:00 +12°C° 0.5 mm 2 mps 624 mmHg 83%
    20:00 +11°C° 0.5 mm 1 mps 624 mmHg 87%
    21:00 +10°C° 0.5 mm 1 mps 624 mmHg 91%
    22:00 +9°C° 0.1 mm 1 mps 624 mmHg 91%
    23:00 +9°C° 0.1 mm 1 mps 623 mmHg 90%

    29 May, Tuesday

    Time Temperature Precipitation Wind Pressure Humidity
    00:00 +8°C° 0.1 mm 1 mps 623 mmHg 89%
    01:00 +8°C° 0.1 mm 1 mps 623 mmHg 90%
    02:00 +8°C° 0.1 mm 1 mps 623 mmHg 90%
    03:00 +8°C° 0.1 mm 1 mps 622 mmHg 90%
    04:00 +8°C° 0.1 mm 1 mps 623 mmHg 88%
    05:00 +9°C° 0.1 mm 1 mps 623 mmHg 87%
    06:00 +9°C° 0.1 mm 1 mps 623 mmHg 85%
    07:00 +11°C° 0 mm 1 mps 624 mmHg 78%
    08:00 +13°C° 0 mm 1 mps 624 mmHg 71%
    09:00 +15°C° 0 mm 2 mps 625 mmHg 64%
    10:00 +15°C° 0.4 mm 2 mps 625 mmHg 65%
    11:00 +15°C° 0.4 mm 2 mps 625 mmHg 66%
    12:00 +16°C° 0.4 mm 2 mps 625 mmHg 66%
    13:00 +15°C° 1.5 mm 2 mps 624 mmHg 70%
    14:00 +15°C° 1.5 mm 2 mps 624 mmHg 73%
    15:00 +15°C° 1.5 mm 1 mps 624 mmHg 76%
    16:00 +14°C° 1.6 mm 1 mps 623 mmHg 79%
    17:00 +13°C° 1.6 mm 1 mps 623 mmHg 83%
    18:00 +12°C° 1.6 mm 1 mps 623 mmHg 86%
    19:00 +11°C° 1.1 mm 1 mps 622 mmHg 89%
    20:00 +10°C° 1.1 mm 1 mps 622 mmHg 92%
    21:00 +9°C° 1.1 mm 1 mps 622 mmHg 94%
    22:00 +9°C° 0.3 mm 1 mps 622 mmHg 94%
    23:00 +9°C° 0.3 mm 1 mps 622 mmHg 95%

    30 May, Wednesday

    Time Temperature Precipitation Wind Pressure Humidity
    00:00 +8°C° 0.3 mm 1 mps 621 mmHg 95%
    01:00 +8°C° 0.1 mm 1 mps 621 mmHg 95%
    02:00 +8°C° 0.1 mm 1 mps 621 mmHg 95%
    03:00 +8°C° 0.1 mm 1 mps 621 mmHg 94%
    04:00 +8°C° 0 mm 1 mps 621 mmHg 93%
    05:00 +9°C° 0 mm 1 mps 622 mmHg 92%
    06:00 +9°C° 0 mm 1 mps 622 mmHg 91%
    07:00 +11°C° 0.1 mm 1 mps 622 mmHg 85%
    08:00 +12°C° 0.1 mm 1 mps 623 mmHg 79%
    09:00 +13°C° 0.1 mm 2 mps 623 mmHg 73%
    10:00 +13°C° 0.7 mm 2 mps 624 mmHg 74%
    11:00 +13°C° 0.7 mm 2 mps 624 mmHg 74%
    12:00 +13°C° 0.7 mm 2 mps 624 mmHg 75%
    13:00 +13°C° 1.6 mm 2 mps 623 mmHg 78%
    14:00 +12°C° 1.6 mm 2 mps 623 mmHg 82%
    15:00 +10°C° 1.6 mm 2 mps 623 mmHg 85%
    16:00 +11°C° 1.6 mm 1 mps 623 mmHg 87%
    17:00 +10°C° 1.6 mm 1 mps 623 mmHg 89%
    18:00 +10°C° 1.6 mm 1 mps 622 mmHg 90%
    19:00 +9°C° 1.2 mm 1 mps 623 mmHg 91%
    20:00 +9°C° 1.2 mm 1 mps 623 mmHg 92%
    21:00 +8°C° 1.2 mm 1 mps 623 mmHg 93%
    22:00 +8°C° 0.4 mm 1 mps 623 mmHg 94%
    23:00 +7°C° 0.4 mm 1 mps 623 mmHg 94%
    Show more